Location: ????
(30.1475°N, 31.1342°E)
Time: 00:56:02
(UTC+00:00)

ARIANE 5 R/B - Pass Details

Date: 28 March 2023
Orbit: 748 x 794 km, 98.8° (Epoch: 29 May)

Event Time Altitude Azimuth Distance (km) Brightness Sun altitude
Rises 01:48:18 0° 17° (NNE) 3,275 6.3 -26.6°
Reaches altitude 10° 01:50:38 10° 20° (NNE) 2,349 5.5 -26.1°
Maximum altitude 01:55:47 63° 101° (ESE) 877 2.9 -25.0°
Enters shadow 01:59:01 23° 177° (S) 1,628 4.0 -24.4°
